Powrót do katalogu

COSMOS 1691 DEB

AktywnyPO
NORAD 43317·DEBRIS·🇷🇺 Russia

Wystrzelony Oct 9, 1985 z Plesetsk Cosmodrome

Loading…

Następne Przeloty (najbliższe 24 godziny)

TLE

Starzejące sięSource: Space-Track

Epoka: Sep 5, 2026, 13:21 UTC

1 43317U 85094AB  26248.55631603  .00000208  00000-0  90507-3 0  9999
2 43317  82.5592 357.5807 0022189 156.0169 204.1969 12.76892067595510

Śledź COSMOS 1691 DEB w czasie rzeczywistym z AllMySat

Download on the App Store